Kuchera_Ratio
0.0 0.0 0.0 0.0 0.0 0.0 0.0 0.0 0.0 0.0 0.0 0.0 0.0 0.0 0.0 0.0 0.0 0.0 0.0 0.0 0.0 0.0 0.0 0.0 0.0 0.0 0.0 0.0 0.0 0.0 0.0 0.0 0.0 0.0 0.0 0.0 0.0 0.0 0.0 0.0 0.0 0.0 0.0
0.0 0.0 0.0 0.0 0.0 0.0 0.0 0.0 0.0 0.0 0.0 0.0 0.0 0.0 0.0 0.0 0.0 0.0 0.0 0.0 0.0 0.0 0.0 0.0 0.0 0.0 0.0 0.0 0.0 0.0 0.0 0.0 0.0 0.0 0.0 0.0 0.0 0.0 0.0 0.0 0.0 0.0 0.0
0.0 0.0 0.0 0.0 0.0 0.0 0.0 0.0 0.0 0.0 0.0 0.0 0.0 0.0 0.0 0.0 0.0 0.0 0.0 0.0 0.0 0.0 0.0 0.0 0.0 0.0 0.0 0.0 0.0 0.0 0.0 0.0 0.0 0.0 0.0 0.0 0.8 0.0 0.0 0.0 0.0 0.0 0.0
0.0 0.0 0.0 0.0 0.0 0.0 0.0 0.0 0.0 0.0 0.0 0.0 0.0 0.0 0.0 0.0 0.0 0.0 0.0 0.0 0.0 0.0 0.0 0.0 0.0 0.0 0.0 0.0 0.0 0.0 0.0 0.0 0.0 0.0 0.0 0.0 0.0 0.6 3.5 0.0 0.0 0.0 0.0
0.0 0.0 0.0 0.0 0.0 0.0 0.0 0.0 0.0 0.0 0.0 0.0 0.0 0.0 0.0 0.0 0.0 0.0 0.0 0.0 0.0 0.0 0.0 0.0 0.0 0.0 0.0 0.0 0.0 0.0 0.0 0.0 0.0 0.0 0.0 0.0 0.0 0.0 1.0 4.3 0.0 0.0 0.0
0.0 0.0 0.0 0.0 0.0 0.0 0.0 0.0 0.0 0.0 0.0 0.0 0.0 0.0 0.0 0.0 0.0 0.0 0.0 0.0 0.0 0.0 0.0 0.0 0.0 0.0 0.0 0.0 0.0 0.0 0.0 0.0 0.0 0.0 0.0 0.0 0.0 0.0 0.0 1.9 0.6 0.0 0.0
0.0 0.0 0.0 0.0 0.0 0.0 0.0 0.0 0.0 0.0 0.0 0.0 0.0 0.0 0.0 0.0 0.0 0.0 0.0 0.0 0.0 0.0 0.0 0.0 0.0 0.0 0.0 0.0 0.0 0.0 0.0 0.0 0.0 0.0 0.0 0.0 0.0 0.0 0.0 0.0 0.8 2.3 0.0
0.0 0.0 0.0 0.0 0.0 0.0 0.0 0.0 0.0 0.0 0.0 0.0 0.0 0.0 0.0 0.0 0.0 0.0 0.0 0.0 0.0 0.0 0.0 0.0 0.0 0.0 0.0 0.0 0.0 0.0 0.0 0.0 0.0 0.0 0.0 0.0 0.0 0.0 0.0 0.0 2.3 6.1 3.2
0.0 0.0 0.0 0.0 0.0 0.0 0.0 0.0 0.0 0.0 0.0 0.0 0.0 0.0 0.0 0.0 0.0 0.0 0.0 0.0 0.0 0.0 0.0 0.0 0.0 0.0 0.0 0.0 0.0 0.0 0.0 0.0 0.0 0.0 0.0 0.0 0.0 0.0 0.0 0.0 0.1 4.0 11.1
0.0 0.0 0.0 0.0 0.0 0.0 0.0 0.0 0.0 0.0 0.0 0.0 0.0 0.0 0.0 0.0 0.0 0.0 0.0 0.0 0.0 0.0 0.0 0.0 0.0 0.0 0.0 0.0 0.0 0.0 0.0 0.0 0.0 0.0 0.7 1.3 0.0 0.0 0.0 0.0 1.6 2.1 5.5
0.0 0.0 0.0 0.0 0.0 0.0 0.0 0.0 0.0 0.0 0.0 0.0 0.0 0.0 0.0 0.0 0.0 0.0 0.0 0.0 0.0 0.0 0.0 0.0 0.0 0.0 0.0 0.0 0.0 0.0 0.0 0.0 0.9 1.8 1.5 1.8 0.5 1.4 0.7 0.8 1.2 2.9 4.3
0.0 0.0 0.0 0.0 0.0 0.0 0.0 0.0 0.0 0.0 0.0 0.0 0.0 0.0 0.0 0.0 0.0 0.0 0.0 0.0 0.0 0.0 0.0 0.0 0.0 0.0 0.0 0.0 0.0 0.0 0.0 0.7 2.0 3.6 4.2 3.3 0.0 3.7 2.8 2.7 3.5 4.4 3.4
0.0 0.0 0.0 0.0 0.0 0.0 0.0 0.0 0.0 0.0 0.0 0.0 0.0 0.0 0.0 0.0 0.0 0.0 0.0 0.0 0.0 0.0 0.0 0.0 0.0 0.0 0.0 0.0 0.0 0.0 0.0 1.0 3.0 4.5 5.1 4.4 4.7 5.9 4.7 4.0 4.3 3.3 1.0
0.0 0.0 0.0 0.0 0.0 0.0 0.0 0.0 0.0 0.0 0.0 0.0 0.0 0.0 0.0 0.0 0.0 0.0 0.0 0.0 0.0 0.0 0.0 0.0 0.0 0.0 0.0 0.0 0.0 0.0 0.9 1.9 4.1 4.5 4.8 4.6 5.1 5.4 4.5 2.8 3.1 1.3 4.1
0.0 0.0 0.0 0.0 0.0 0.0 0.0 0.0 0.0 0.0 0.0 0.0 0.0 0.0 0.0 0.0 0.0 0.0 0.0 0.0 0.0 0.0 0.0 0.0 0.0 0.0 0.0 0.0 0.0 0.0 1.4 2.9 5.1 6.4 4.0 3.3 1.5 0.0 0.0 0.0 3.1 4.1 5.7
0.0 0.0 0.0 0.0 0.0 0.0 0.0 0.0 0.0 0.0 0.0 0.0 0.0 0.0 0.0 0.0 0.0 0.0 0.0 0.0 0.0 0.0 0.0 0.0 0.5 0.9 0.0 0.0 0.0 0.0 0.6 3.5 5.9 7.4 4.6 4.0 1.1 1.0 0.0 0.0 0.0 0.0 4.0
0.0 0.0 0.0 0.0 0.0 0.0 0.0 0.0 0.0 0.0 0.0 0.0 0.0 0.0 0.0 0.0 0.0 0.0 0.0 0.0 0.0 0.1 1.0 1.6 2.1 2.4 2.7 0.0 0.0 0.0 0.0 4.2 5.6 6.6 6.2 4.7 1.0 2.0 4.5 1.3 0.0 1.2 0.8
0.0 0.0 0.0 0.0 0.0 0.0 0.0 0.0 0.0 0.0 0.0 0.0 0.0 0.0 0.0 0.0 0.0 0.0 0.1 0.7 1.2 2.2 3.0 3.2 3.3 3.9 3.0 0.0 0.0 0.0 2.4 5.3 6.5 7.3 6.5 6.6 6.1 5.0 2.6 2.9 6.0 7.1 6.4
0.0 0.0 0.0 0.0 0.0 0.0 0.0 0.0 0.0 0.0 0.0 0.0 0.0 0.0 0.0 0.0 0.0 1.0 1.6 1.8 2.9 3.8 3.7 3.9 4.6 5.3 6.0 0.0 0.0 0.0 4.1 4.9 5.9 5.0 5.0 4.6 5.7 1.5 0.0 4.8 9.6 10.5 10.5
0.0 0.0 0.0 0.0 0.0 0.0 0.0 0.0 0.0 0.0 0.0 0.0 0.0 0.0 0.0 0.0 0.8 1.7 2.2 2.8 3.8 4.0 4.3 5.5 5.6 5.2 7.0 1.9 0.0 0.4 4.5 7.3 6.7 6.5 6.8 2.8 2.5 0.1 0.7 5.6 8.0 13.1 11.5
0.0 0.0 0.0 0.0 0.0 0.0 0.0 0.0 0.0 0.0 0.0 0.0 0.0 0.0 0.0 0.2 0.8 1.9 3.2 4.0 4.0 5.1 6.4 7.5 7.2 7.7 8.5 7.7 0.6 0.4 4.1 6.3 7.7 9.8 8.5 6.6 2.0 2.7 0.9 1.5 9.0 9.5 6.1
0.0 0.0 0.0 0.0 0.0 0.0 0.0 0.0 0.0 0.2 0.0 0.0 0.0 0.1 0.6 1.0 1.7 3.2 3.2 3.7 5.5 8.1 9.1 10.0 10.1 9.4 9.7 4.0 2.4 0.6 0.5 1.0 5.8 7.8 7.6 7.4 4.1 2.4 3.4 5.8 4.4 4.1 5.9
0.0 0.0 0.0 0.0 0.0 0.0 0.0 0.3 1.9 0.3 0.4 0.6 1.4 1.7 1.8 2.5 3.4 4.2 5.1 7.0 7.6 10.2 11.2 11.6 12.2 10.8 8.8 11.1 2.9 1.3 0.9 0.5 3.9 6.6 5.3 4.9 4.3 5.4 8.1 6.9 6.2 6.8 12.9
0.0 0.0 0.0 0.0 0.8 0.0 0.0 0.2 0.9 0.6 1.2 2.8 3.2 3.4 4.1 3.7 4.7 5.7 6.6 8.2 9.8 11.3 11.7 11.9 11.0 11.2 9.9 9.4 7.8 4.9 4.8 2.8 6.1 6.7 8.8 7.5 7.5 8.0 9.1 10.7 11.1 12.3 12.8
0.0 0.0 0.0 1.1 2.4 1.0 1.9 1.2 1.3 1.7 3.7 4.7 5.6 6.0 6.1 6.8 7.6 7.8 8.5 8.5 8.3 8.2 8.6 9.6 9.9 11.2 10.7 7.9 1.7 2.8 5.2 5.7 5.8 6.5 11.9 12.8 13.3 14.1 13.5 13.1 12.9 13.0 13.1
0.0 0.0 0.2 1.4 2.9 2.6 3.2 2.5 2.6 3.2 5.2 6.8 7.5 7.7 7.7 8.6 9.9 11.0 11.7 4.5 2.2 1.3 1.3 1.6 4.0 5.7 2.6 1.7 1.9 2.2 2.8 3.2 4.3 11.4 14.0 14.8 14.9 15.0 14.5 14.6 14.6 14.0 13.7